Regional Weather Roundup
Issued by NWS San Angelo, TX

Home | Current Version | Previous Version | Text Only | Print | Product List | Glossary On
Versions: 1 2 3 4 5 6 7 8 9 10 11 12 13 14 15 16 17 18 19 20 21 22 23 24 25 26 27 28 29 30 31 32 33 34 35 36 37 38 39 40 41 42 43 44 45 46 47 48 49 50
000
ASUS44 KSJT 191110
RWRSJT
WEST CENTRAL TEXAS REGIONAL WEATHER ROUNDUP
NATIONAL WEATHER SERVICE SAN ANGELO TX
500 AM CST FRI DEC 19 2014

NOTE: "FAIR" INDICATES FEW OR NO CLOUDS BELOW 12,000 FEET WITH NO
SIGNIFICANT WEATHER AND/OR OBSTRUCTIONS TO VISIBILITY.

TXZ049-054-064>066-071>073-076>078-098-099-113-114-127-128-139-140-
154-155-168>170-191200
...LOCATIONS ACROSS WEST CENTRAL TEXAS...

CITY           SKY/WX    TMP DP  RH WIND       PRES   REMARKS
SAN ANGELO     CLOUDY    46  42  86 N12       30.11R
ABILENE        CLOUDY    42  41  96 N9        30.15S FOG     WCI  37
DYESS AFB      MOCLDY    42  38  84 N10       30.14F WCI  36
JUNCTION       CLOUDY    50  48  93 E3        30.08S
SWEETWATER     CLOUDY    41  38  89 N7        30.18S WCI  36
BROWNWOOD      CLOUDY    46  45  93 NE5       30.13R
COLEMAN        CLOUDY    46  46 100 NE7       30.12R FOG
SONORA         CLOUDY    52  52 100 NE5       30.11R FOG
OZONA          CLOUDY    50  46  87 NE7       30.10S
BRADY          CLOUDY    45  45 100 NE5       30.11R
$$

TEXAS PANHANDLE/OKLAHOMA PANHANDLE

CITY           SKY/WX    TMP DP  RH WIND       PRES   REMARKS
AMARILLO       MIX PCPN  36  35  96 SE7       30.11F FOG     WCI  30
BORGER         CLOUDY    37  31  78 NE3       30.13S
CANADIAN       CLOUDY    38  38  97 CALM      30.14F FOG
DALHART        CLOUDY    33  30  88 NW3       30.11S FOG
DUMAS          CLOUDY    32  31  94 CALM      30.11S FOG
GUYMON         NOT AVBL
HEREFORD       CLOUDY    37  37  97 S7        30.10S FOG     WCI  32
PAMPA          CLOUDY    36  33  89 CALM      30.12F
PERRYTON       CLOUDY    36  35  96 CALM      30.12F
$$

SOUTHERN PANHANDLE/SOUTH PLAINS/ROLLING PLAINS

CITY           SKY/WX    TMP DP  RH WIND       PRES   REMARKS
LUBBOCK        CLOUDY    38  37  97 SE5       30.10F WCI  34
SNYDER         CLOUDY    39  36  87 E6        30.16R WCI  35
CHILDRESS      LGT RAIN  40  38  93 NE3       30.17S
SEMINOLE       CLOUDY    37  36  96 E6        30.11S FOG     WCI  32
$$

PERMIAN BASIN

CITY           SKY/WX    TMP DP  RH WIND       PRES   REMARKS
MIDLAND        MOCLDY    39  37  92 E12       30.09F WCI  32
ODESSA         PTCLDY    38  36  92 SE5       30.10S WCI  34
WINK           CLEAR     42  35  76 SE5       30.08S WCI  39
$$

FAR WEST/SOUTHWEST MOUNTAINS/TRANS PECOS

CITY           SKY/WX    TMP DP  RH WIND       PRES   REMARKS
ALPINE         SUNNY     33  28  82 S8        30.18S WCI  26
DRYDEN           N/A     50  38  63 N9        30.05R
EL PASO        PTCLDY    44  36  73 W7        30.13S
FORT STOCKTON  CLEAR     40  32  73 SW9       30.10S WCI  34
GUADALUPE PASS NOT AVBL
MARFA          CLEAR     30  25  80 N6        30.15R WCI  24
PECOS          SUNNY     43  35  72 N5        30.11R
$$

DALLAS/FORT WORTH METROPLEX

CITY           SKY/WX    TMP DP  RH WIND       PRES   REMARKS
DFW AIRPORT    LGT RAIN  46  43  89 NE7       30.17F FOG
FTW MEACHAM    RAIN      46  43  89 N7        30.16F FOG
DAL-EXECUTIVE  LGT RAIN  47  44  90 N10       30.17R
GRAND PRAIRIE  CLOUDY    46  46 100 N7        30.20R
ADDISON        NOT AVBL
MESQUITE       NOT AVBL
LANCASTER      DRIZZLE   46  43  90 NW12      30.20R WCI  40
$$

NORTH CENTRAL TEXAS

CITY           SKY/WX    TMP DP  RH WIND       PRES   REMARKS
SHRMAN/DENISON FOG       44  44 100 CALM      30.19R VSB 3/4
GAINESVILLE    FOG       43  42  99 N6        30.18F VSB 1   WCI  39
BRIDGEPORT     RAIN      44  44 100 CALM      30.21R
DENTON         RAIN      45  43  93 S7        30.21R FOG
WAXAHACHIE     DRIZZLE   45  45 100 NW15      30.18R WCI  38
GRANBURY       RAIN      46  44  92 N8        30.15F
$$

WESTERN NORTH TEXAS

CITY           SKY/WX    TMP DP  RH WIND       PRES   REMARKS
WICHITA FALLS  CLOUDY    43  41  93 E7        30.19R WCI  39
VERNON         CLOUDY    43  38  81 NE3       30.20R
BRECKENRIDGE   DRIZZLE   46  46  97 NE3       30.16S
COMANCHE       CLOUDY    45  45 100 N10       30.13F WCI  39
$$

CENTRAL AND SOUTH CENTRAL TEXAS

CITY           SKY/WX    TMP DP  RH WIND       PRES   REMARKS
AUSTIN/BERGSTM LGT RAIN  49  49 100 N10       30.04F FOG
WACO           RAIN      46  45  96 N16       30.12R FOG     WCI  39
HILLSBORO      CLOUDY    46  44  91 N18       30.14R FOG     WCI  39
TEMPLE         CLOUDY    46  43  87 N16       30.09R WCI  40
KILLEEN-GRAY   LGT RAIN  46  46 100 N17       30.09R WCI  39
FORT HOOD      CLOUDY    47  46  98 N17       30.08R WCI  40
GEORGETOWN     CLOUDY    48  46  93 N9        30.05F
LAGO VISTA     HVY RAIN  48  46  95 N8        30.06S
SAN MARCOS     CLOUDY    50  46  87 N14       30.03F
NEW BRAUNFELS  CLOUDY    51  32  48 N10       30.02F FOG
RANDOLPH AFB   CLOUDY    51  49  94 N12       30.03S
SAN ANTONIO    DRIZZLE   52  50  93 N10       30.03S FOG
STINSON        CLOUDY    53  50  89 NE12      30.01S
PLEASANTON     NOT AVBL
LA GRANGE      CLOUDY    53  52  97 N6        30.00F
GIDDINGS       LGT RAIN  50  49  97 N8        30.06F
$$

EAST TEXAS

CITY           SKY/WX    TMP DP  RH WIND       PRES   REMARKS
PARIS          CLOUDY    45  43  93 NE7       30.17R
CLARKSVILLE    NOT AVBL
TYLER          LGT RAIN  48  46  93 N9        30.11R FOG
LONGVIEW       CLOUDY    49  46  90 NE6       30.10F FOG
PALESTINE      LGT RAIN  49  49  99 N9        30.09S
NACOGDOCHES    CLOUDY    48  46  93 E13       30.04F
$$

TEXAS HILL COUNTRY AND EDWARDS PLATEAU

CITY           SKY/WX    TMP DP  RH WIND       PRES   REMARKS
LLANO          CLOUDY    48  46  93 NE8G17    30.13R THUNDER FOG
HORSESHOE BAY  DRIZZLE   48  48 100 N3        30.09R
KERRVILLE      CLOUDY    50  48  93 N7        30.05S
FREDERICKSBRG  CLOUDY    47  46  93 N8        30.06S
ROCKSPRINGS    FOG       52  52 100 NE8       30.06S VSB 1/2
HONDO          CLOUDY    54  52  93 N9        30.04R
UVALDE         CLOUDY    55  54  94 E3        30.03S
DEL RIO        CLOUDY    59  54  83 W6        30.01S
$$

SOUTHEAST TEXAS

CITY           SKY/WX    TMP DP  RH WIND       PRES   REMARKS
COLLEGE STN    TSTM      51  50  96 NE16      30.01F
CALDWELL       CLOUDY    50  50 100 N8        30.08R
CROCKETT       LGT RAIN  54  52  94 N5        30.11R
BRENHAM        LGT RAIN  54  53  97 N8        30.03F
HUNTSVILLE     CLOUDY    53  51  93 NE6       30.03F
CONROE         HVY RAIN  54  52  93 E7        30.02F FOG
HOUSTON BUSH   RAIN      57  56  96 E8        30.01F
HOUSTON HOBBY  CLOUDY    59  58  96 E12       30.00F
PERLAND        LGT RAIN  59  57  93 E20G28    30.01F
WHARTON        CLOUDY    59  58  97 NE9       29.97F
$$

THE UPPER TEXAS COAST

CITY           SKY/WX    TMP DP  RH WIND       PRES   REMARKS
ORANGE         RAIN      58  57  99 NE6       30.07R
PORT ARTHUR    RAIN      60  58  92 E14       30.02F FOG
GALVESTON      CLOUDY    58  57  97 NE21      30.02F
ANGLETON       CLOUDY    58  58 100 NE10      29.99F
BAY CITY       LGT RAIN  62  62 100 NE14      29.96F
$$

TEXAS COASTAL BEND, RIO GRANDE PLAINS DEEP SOUTH TEXAS

CITY           SKY/WX    TMP DP  RH WIND       PRES   REMARKS
VICTORIA       CLOUDY    61  59  93 N10       29.97F
BEEVILLE       DRIZZLE   59  59 100 N12       29.96S
ROCKPORT       CLOUDY    69  67  93 S7        29.94F
PORT ARANSAS   CLOUDY    67  66  97 SE5       29.94S
PORT LAVACA    CLOUDY    65  64  98 NE5       29.95F FOG
CORPUS CHRISTI CLOUDY    68  66  93 SE3       29.94F
KINGSVILLE NAS LGT RAIN  69  69 100 CALM      29.94S FOG
COTULLA        CLOUDY    58  56  93 NE8       30.00R
LAREDO         NOT AVBL
BROWNSVILLE    CLOUDY    67  65  93 S6        29.93F FOG
PORT ISABEL    PTCLDY    68  66  93 S3        29.93S FOG
HEBBRONVILLE   CLOUDY    63  62  97 CALM      29.95S
MCALLEN        CLOUDY    63  62  97 NW5       29.96R FOG
WESLACO        CLOUDY    64  61  93 NW5       29.95R FOG
FALFURRIAS     CLOUDY    67  65  93 W3        29.94F
EDINBURG       CLOUDY    65  63  91 NW6       29.96R
$$


USA.gov is the U.S. government's official web portal to all federal, state and local government web resources and services.